Weather History for KPMV - May, 2013

Change the Weather History Date:

Sunday, May 26, 2013

  Actual Average (KOFF) Record (KOFF)
Temperature  
Mean Temperature 74 °F -  
Max Temperature 85 °F 74 °F 96 °F (2012)
Min Temperature 64 °F 54 °F 46 °F (2011)
Cooling Degree Days 10    
Growing Degree Days 24 (Base 50)    
Moisture  
Dew Point 65 °F    
Average Humidity 76    
Maximum Humidity 93    
Minimum Humidity 56    
Precipitation  
Precipitation 0.00 in - - ()
Sea Level Pressure  
Sea Level Pressure 29.93 in    
Wind  
Wind Speed 10 mph (SE)    
Max Wind Speed 16 mph    
Max Gust Speed 22 mph    
Visibility 10 miles    
Events      
Averages and records for this station are not official NWS values.
T = Trace of Precipitation, MM = Missing Value Source: NWS Daily Summary

Daily Weather History Graph

Daily Weather History Graph

Search for Another Location

Airport or City:

Trip Planner

Search our weather history database for the weather conditions in past years. The results will help you decide how hot, cold, wet, or windy it might be!

Date:

Astronomy

May. 26, 2013 Rise Set
Actual Time 5:57 AM CDT 8:44 PM CDT
Civil Twilight 5:24 AM CDT 9:17 PM CDT
Nautical Twilight 4:44 AM CDT 9:58 PM CDT
Astronomical Twilight 3:57 AM CDT 10:45 PM CDT
Moon 10:33 PM CDT (5/26) 7:27 AM CDT (5/26)
Length of Visible Light 15h 52m
Length of Day
14h 47m
Waning Gibbous, 96% of the Moon is Illuminated
May 26
Waning Gibbous
May 31
Last Quarter
Jun 8
New
Jun 16
First Quarter
Jun 23
Full

Hourly Weather History & Observations

Time (CDT) Temp. Heat Index Dew Point Humidity Pressure Visibility Wind Dir Wind Speed Gust Speed Precip Events Conditions
12:15 AM 68.0 °F - 62.8 °F 83% 30.01 in 10.0 mi ESE 12.7 mph - N/A   Mostly Cloudy
12:35 AM 67.5 °F - 62.6 °F 84% 30.01 in 10.0 mi ESE 11.5 mph - N/A   Overcast
12:55 AM 67.1 °F - 62.4 °F 85% 30.01 in 10.0 mi East 10.4 mph - N/A   Overcast
1:15 AM 66.4 °F - 62.1 °F 86% 30.01 in 10.0 mi East 13.8 mph - N/A   Overcast
1:35 AM 66.2 °F - 61.9 °F 86% 29.99 in 10.0 mi ESE 11.5 mph - N/A   Overcast
1:55 AM 66.2 °F - 61.9 °F 86% 29.99 in 10.0 mi ESE 11.5 mph 17.3 mph N/A   Overcast
2:15 AM 66.2 °F - 61.7 °F 85% 29.99 in 10.0 mi ESE 10.4 mph 16.1 mph N/A   Overcast
2:35 AM 65.7 °F - 61.7 °F 87% 29.99 in 10.0 mi SE 9.2 mph - N/A   Overcast
2:55 AM 65.7 °F - 61.9 °F 88% 29.97 in 10.0 mi SE 8.1 mph - N/A   Mostly Cloudy
3:15 AM 65.7 °F - 61.9 °F 88% 29.97 in 10.0 mi SE 10.4 mph 16.1 mph N/A   Scattered Clouds
3:35 AM 65.3 °F - 61.9 °F 89% 29.96 in 10.0 mi SE 8.1 mph - N/A   Clear
3:55 AM 65.3 °F - 62.1 °F 89% 29.96 in 10.0 mi SE 9.2 mph - N/A   Clear
4:15 AM 64.8 °F - 61.9 °F 90% 29.96 in 10.0 mi SE 6.9 mph - N/A   Clear
4:35 AM 64.6 °F - 62.1 °F 92% 29.94 in 10.0 mi SE 8.1 mph - N/A   Clear
4:55 AM 64.8 °F - 62.2 °F 92% 29.94 in 10.0 mi SE 9.2 mph - N/A   Clear
5:15 AM 64.6 °F - 62.2 °F 92% 29.93 in 10.0 mi SE 11.5 mph 17.3 mph N/A   Clear
5:35 AM 64.9 °F - 62.6 °F 92% 29.94 in 10.0 mi SE 9.2 mph - N/A   Clear
5:55 AM 64.9 °F - 62.8 °F 93% 29.94 in 10.0 mi SE 9.2 mph - N/A   Clear
6:15 AM 65.3 °F - 63.0 °F 92% 29.94 in 10.0 mi SE 8.1 mph - N/A   Clear
6:35 AM 66.2 °F - 63.7 °F 92% 29.95 in 10.0 mi SE 6.9 mph - N/A   Mostly Cloudy
6:55 AM 66.6 °F - 64.2 °F 92% 29.97 in 10.0 mi SE 4.6 mph - N/A   Overcast
7:15 AM 67.1 °F - 64.4 °F 91% 29.98 in 10.0 mi East 4.6 mph - N/A   Overcast
7:35 AM 66.6 °F - 64.4 °F 93% 29.98 in 10.0 mi Calm Calm - N/A   Overcast
7:55 AM 66.2 °F - 64.0 °F 93% 29.98 in 7.0 mi ENE 4.6 mph - N/A   Overcast
8:15 AM 66.6 °F - 64.4 °F 93% 29.99 in 7.0 mi East 6.9 mph - N/A   Overcast
8:35 AM 66.9 °F - 64.6 °F 92% 29.97 in 7.0 mi SE 8.1 mph - N/A   Overcast
8:55 AM 67.5 °F - 64.9 °F 92% 29.96 in 7.0 mi SE 9.2 mph - N/A   Overcast
9:15 AM 69.1 °F - 65.8 °F 89% 29.96 in 10.0 mi SE 8.1 mph 16.1 mph N/A   Overcast
9:35 AM 70.5 °F - 66.6 °F 87% 29.97 in 10.0 mi SE 6.9 mph - N/A   Overcast
9:55 AM 71.8 °F - 67.1 °F 85% 29.97 in 10.0 mi ESE 5.8 mph - N/A   Overcast
10:15 AM 72.0 °F - 67.1 °F 85% 29.97 in 10.0 mi ESE 6.9 mph - N/A   Overcast
10:35 AM 73.4 °F - 67.5 °F 82% 29.96 in 10.0 mi ESE 8.1 mph - N/A   Overcast
10:55 AM 74.8 °F - 67.5 °F 78% 29.96 in 10.0 mi SE 12.7 mph - N/A   Overcast
11:15 AM 75.6 °F - 67.5 °F 76% 29.95 in 10.0 mi SE 11.5 mph - N/A   Overcast
11:35 AM 76.5 °F - 68.0 °F 75% 29.96 in 10.0 mi SSE 11.5 mph 17.3 mph N/A   Overcast
11:55 AM 77.5 °F - 67.8 °F 72% 29.97 in 10.0 mi SSE 6.9 mph - N/A   Overcast
12:15 PM 76.5 °F - 67.3 °F 73% 29.96 in 10.0 mi SE 8.1 mph - N/A   Overcast
12:35 PM 77.4 °F - 67.6 °F 72% 29.96 in 10.0 mi SE 8.1 mph - N/A   Overcast
12:55 PM 77.5 °F - 67.8 °F 72% 29.95 in 10.0 mi SE 5.8 mph - N/A   Overcast
1:15 PM 78.3 °F - 68.2 °F 71% 29.94 in 10.0 mi SE 5.8 mph - N/A   Overcast
1:35 PM 82.4 °F 85.4 °F 68.4 °F 62% 29.93 in 10.0 mi SSE 12.7 mph 18.4 mph N/A   Scattered Clouds
1:55 PM 80.6 °F 82.9 °F 67.1 °F 63% 29.92 in 10.0 mi South 13.8 mph - N/A   Mostly Cloudy
2:15 PM 80.6 °F 83.1 °F 67.3 °F 64% 29.93 in 10.0 mi SSE 10.4 mph - N/A   Overcast
2:35 PM 80.6 °F 83.1 °F 67.5 °F 64% 29.92 in 10.0 mi South 16.1 mph - N/A   Overcast
2:55 PM 82.6 °F 85.7 °F 68.4 °F 62% 29.91 in 10.0 mi SSE 9.2 mph 17.3 mph N/A   Mostly Cloudy
3:15 PM 83.1 °F 86.3 °F 68.4 °F 61% 29.90 in 10.0 mi SSE 12.7 mph 18.4 mph N/A   Mostly Cloudy
3:35 PM 82.9 °F 86.0 °F 68.2 °F 61% 29.89 in 10.0 mi SE 12.7 mph - N/A   Scattered Clouds
3:55 PM 84.4 °F 88.2 °F 68.9 °F 60% 29.89 in 10.0 mi SE 10.4 mph - N/A   Scattered Clouds
4:15 PM 82.9 °F 85.8 °F 67.6 °F 60% 29.89 in 10.0 mi SE 10.4 mph - N/A   Overcast
4:35 PM 83.7 °F 86.5 °F 67.3 °F 58% 29.89 in 10.0 mi South 10.4 mph - N/A   Overcast
4:55 PM 84.2 °F 87.6 °F 68.5 °F 59% 29.87 in 10.0 mi SSE 13.8 mph - N/A   Scattered Clouds
5:15 PM 83.3 °F 86.6 °F 68.4 °F 61% 29.86 in 10.0 mi SE 10.4 mph 16.1 mph N/A   Scattered Clouds
5:35 PM 83.8 °F 86.7 °F 67.8 °F 58% 29.85 in 10.0 mi South 16.1 mph 19.6 mph N/A   Scattered Clouds
5:55 PM 85.1 °F 88.2 °F 68.0 °F 56% 29.84 in 10.0 mi South 12.7 mph 20.7 mph N/A   Scattered Clouds
6:15 PM 84.0 °F 87.0 °F 68.0 °F 58% 29.85 in 10.0 mi South 12.7 mph 21.9 mph N/A   Scattered Clouds
6:35 PM 82.6 °F 85.7 °F 68.4 °F 62% 29.85 in 10.0 mi SSE 12.7 mph 16.1 mph N/A   Scattered Clouds
6:55 PM 82.0 °F 85.1 °F 68.5 °F 63% 29.86 in 10.0 mi SSE 13.8 mph 18.4 mph N/A   Mostly Cloudy
7:15 PM 81.5 °F 84.1 °F 67.5 °F 62% 29.86 in 10.0 mi South 15.0 mph 19.6 mph N/A   Overcast
7:35 PM 80.6 °F 82.9 °F 67.1 °F 63% 29.86 in 10.0 mi SSE 13.8 mph 18.4 mph N/A   Mostly Cloudy
7:55 PM 80.1 °F 82.3 °F 66.9 °F 64% 29.86 in 10.0 mi South 11.5 mph 17.3 mph N/A   Mostly Cloudy
8:15 PM 79.5 °F - 66.6 °F 64% 29.87 in 10.0 mi SSE 9.2 mph - N/A   Mostly Cloudy
8:35 PM 78.8 °F - 66.2 °F 65% 29.87 in 10.0 mi SSE 9.2 mph - N/A   Mostly Cloudy
8:55 PM 77.9 °F - 66.4 °F 68% 29.87 in 10.0 mi SSE 6.9 mph - N/A   Mostly Cloudy
9:15 PM 77.7 °F - 66.6 °F 68% 29.87 in 10.0 mi SE 9.2 mph - N/A   Mostly Cloudy
9:35 PM 77.9 °F - 66.7 °F 68% 29.88 in 10.0 mi ESE 8.1 mph - N/A   Overcast
9:55 PM 77.5 °F - 66.7 °F 69% 29.87 in 10.0 mi SE 6.9 mph - N/A   Overcast
10:15 PM 72.9 °F - 65.5 °F 78% 29.88 in 10.0 mi East 10.4 mph - N/A   Overcast
10:35 PM 71.1 °F - 63.7 °F 77% 29.86 in 10.0 mi ESE 16.1 mph 19.6 mph N/A   Scattered Clouds
10:55 PM 70.7 °F - 61.9 °F 74% 29.86 in 10.0 mi ESE 13.8 mph 21.9 mph N/A   Mostly Cloudy
11:15 PM 70.9 °F - 62.6 °F 75% 29.86 in 10.0 mi ESE 12.7 mph 20.7 mph N/A   Mostly Cloudy
11:35 PM 71.8 °F - 62.2 °F 72% 29.86 in 10.0 mi ESE 10.4 mph 17.3 mph N/A   Mostly Cloudy
11:55 PM 71.4 °F - 62.1 °F 72% 29.86 in 10.0 mi SE 9.2 mph 16.1 mph N/A   Mostly Cloudy